Weather History for Killeen/Ft Hood, TX

Change the Weather History Date:

Thursday, December 13, 2012

  Actual Average Record
Temperature  
Mean Temperature 52 °F -  
Max Temperature 68 °F 59 °F 78 °F (1996)
Min Temperature 37 °F 39 °F 28 °F (2000)
Degree Days  
Heating Degree Days 12    
Growing Degree Days 2 (Base 50)    
Moisture  
Dew Point 28 °F    
Average Humidity 39    
Maximum Humidity 65    
Minimum Humidity 25    
Precipitation  
Precipitation 0.00 in - - ()
Sea Level Pressure  
Sea Level Pressure 30.25 in    
Wind  
Wind Speed 7 mph (SE)    
Max Wind Speed 15 mph    
Max Gust Speed 23 mph    
Visibility 10 miles    
Events      
Averages and records for this station are not official NWS values.
T = Trace of Precipitation, MM = Missing Value Source: NWS Daily Summary

Daily Weather History Graph

Daily Weather History Graph

Search for Another Location

Airport:

Trip Planner

Search our weather history database for the weather conditions in past years. The results will help you decide how hot, cold, wet, or windy it might be!

Date:

Astronomy

Dec. 13, 2012 Rise Set
Actual Time 7:20 AM CST 5:29 PM CST
Civil Twilight 6:54 AM CST 5:56 PM CST
Nautical Twilight 6:24 AM CST 6:26 PM CST
Astronomical Twilight 5:54 AM CST 6:56 PM CST
Moon 7:31 AM CST (12/13) 6:12 PM CST (12/13)
Length of Visible Light 11h 02m
Length of Day
10h 08m
New Moon, 0% of the Moon is Illuminated
Dec 13
New Moon
Dec 19
First Quarter
Dec 28
Full
Jan 4
Last Quarter
Jan 11
New

Hourly Weather History & Observations

Time (CST) Temp. Windchill Dew Point Humidity Pressure Visibility Wind Dir Wind Speed Gust Speed Precip Events Conditions
12:56 AM 42.1 °F 39.2 °F 19.9 °F 41% 30.25 in 10.0 mi SSE 4.6 mph - N/A   Clear
1:56 AM 41.0 °F 38.0 °F 21.0 °F 45% 30.25 in 10.0 mi SSE 4.6 mph - N/A   Clear
2:56 AM 39.9 °F 37.8 °F 21.9 °F 49% 30.25 in 10.0 mi SSE 3.5 mph - N/A   Clear
3:56 AM 39.9 °F 35.8 °F 23.0 °F 51% 30.25 in 10.0 mi SSE 5.8 mph - N/A   Clear
4:56 AM 39.0 °F 34.0 °F 25.0 °F 57% 30.25 in 10.0 mi SSE 6.9 mph - N/A   Clear
5:56 AM 39.0 °F 34.8 °F 26.1 °F 60% 30.25 in 10.0 mi SSE 5.8 mph - N/A   Clear
6:56 AM 37.9 °F 33.5 °F 27.0 °F 65% 30.26 in 10.0 mi SE 5.8 mph - N/A   Clear
7:56 AM 39.9 °F 37.8 °F 27.0 °F 60% 30.27 in 10.0 mi SE 3.5 mph - N/A   Clear
8:56 AM 46.9 °F - 27.0 °F 46% 30.28 in 10.0 mi SE 8.1 mph - N/A   Clear
9:56 AM 53.1 °F - 30.0 °F 41% 30.40 in 10.0 mi SE 10.4 mph - N/A   Clear
10:56 AM 57.9 °F - 30.9 °F 36% 30.39 in 10.0 mi SE 10.4 mph - N/A   Clear
11:56 AM 62.1 °F - 32.0 °F 32% 30.36 in 10.0 mi South 13.8 mph 19.6 mph N/A   Clear
12:56 PM 64.9 °F - 30.9 °F 28% 30.33 in 10.0 mi SSE 11.5 mph - N/A   Clear
1:56 PM 68.0 °F - 30.9 °F 25% 30.29 in 10.0 mi South 15.0 mph - N/A   Clear
2:56 PM 68.0 °F - 30.9 °F 25% 30.17 in 10.0 mi SSE 13.8 mph 23.0 mph N/A   Clear
3:56 PM 66.9 °F - 30.9 °F 26% 30.16 in 10.0 mi SE 11.5 mph - N/A   Mostly Cloudy
4:56 PM 66.9 °F - 30.0 °F 25% 30.16 in 10.0 mi SE 6.9 mph - N/A   Overcast
5:56 PM 64.9 °F - 30.0 °F 27% 30.16 in 10.0 mi SE 9.2 mph - N/A   Overcast
6:56 PM 63.0 °F - 30.0 °F 29% 30.18 in 10.0 mi SE 9.2 mph - N/A   Mostly Cloudy
7:56 PM 61.0 °F - 28.9 °F 30% 30.18 in 10.0 mi SSE 9.2 mph - N/A   Mostly Cloudy
8:56 PM 60.1 °F - 28.9 °F 31% 30.18 in 10.0 mi SE 10.4 mph - N/A   Mostly Cloudy
9:56 PM 60.1 °F - 30.9 °F 33% 30.18 in 10.0 mi SSE 9.2 mph - N/A   Overcast
10:56 PM 60.1 °F - 30.9 °F 33% 30.27 in 10.0 mi SE 8.1 mph - N/A   Overcast
11:56 PM 59.0 °F - 33.1 °F 38% 30.18 in 10.0 mi SE 9.2 mph - N/A   Overcast